period_start,C,m1,H,J0,J1,J2,J3,J4,J5,JA,JB,JC,JD,JJ,JK,JN,#
2014-02-04 02:08:09,0.00,0.00,0.00,-7.32,-9.98,-10.26,5.34,24.88,1017.84,1813.92,3184.99,2976.39,3237.95,277.35,286.61,0.00,0000 0000 0000 0000 000082
2014-02-04 02:09:09,0.00,0.00,0.00,-7.30,-9.98,-9.67,6.42,30.42,1018.07,2175.69,3817.69,3568.66,3883.80,351.23,362.78,0.01,0004 0000 0000 0000 000082
2014-02-04 02:10:09,0.00,0.00,0.00,-7.27,-9.98,-9.12,6.34,30.42,1018.11,2174.70,3814.40,3566.22,3882.09,350.29,361.69,0.01,0000 0000 0000 0000 000082
2014-02-04 02:11:09,0.00,0.00,0.00,-7.24,-9.98,-8.65,6.69,31.13,1018.41,2174.03,3812.12,3564.53,3880.76,350.40,361.64,0.00,0000 0000 0000 0000 000000
2014-02-04 02:12:10,0.00,0.00,0.00,-7.19,-9.98,-8.27,6.48,32.58,1018.56,2173.40,3810.50,3563.35,3879.80,349.69,361.13,0.00,0000 0000 0000 0000 000000
2014-02-04 02:13:10,0.00,0.00,0.00,-7.13,-9.98,-7.95,6.58,32.42,1018.57,2173.14,3809.27,3562.52,3879.27,349.46,360.81,0.01,0000 0000 0000 0000 000000
2014-02-04 02:14:10,0.00,0.00,0.00,-7.07,-9.97,-7.65,6.51,32.50,1018.57,2173.05,3808.27,3561.95,3878.68,349.80,361.09,0.01,0000 0000 0000 0000 000000
2014-02-04 02:15:10,0.00,0.00,0.00,-7.00,-9.97,-7.41,6.63,32.67,1018.57,2173.02,3807.33,3561.35,3878.25,349.78,361.01,0.02,0000 0000 0000 0000 000000
2014-02-04 02:16:11,0.00,0.00,0.00,-6.92,-9.96,-7.20,6.60,32.54,1018.57,2173.00,3806.45,3560.95,3877.98,350.35,361.44,0.03,0000 0000 0000 0000 000000
2014-02-04 02:17:11,0.01,0.00,0.00,-6.82,-9.96,-7.00,6.62,32.58,1018.58,2173.00,3805.59,3560.38,3877.42,350.32,361.11,0.03,0000 0000 0000 0000 000000
2014-02-04 02:18:11,0.02,0.00,0.00,-6.71,-9.96,-6.83,6.54,32.54,1018.60,2173.00,3804.74,3559.83,3877.02,350.84,361.69,0.04,0000 0000 0000 0000 000000
2014-02-04 02:19:11,0.03,0.00,0.00,-6.60,-9.95,-6.73,6.63,32.54,1018.67,2173.00,3803.92,3559.30,3876.41,349.90,360.44,0.04,0000 0000 0000 0000 000000
2014-02-04 02:20:12,0.05,0.01,0.00,-6.48,-9.93,-6.64,6.44,32.38,1018.88,2173.00,3803.13,3558.79,3876.07,349.66,359.81,0.05,0000 0000 0000 0000 000000
2014-02-04 02:21:12,0.05,0.01,0.00,-6.35,-9.92,-6.57,6.43,32.29,1019.03,2173.02,3802.37,3558.30,3875.50,349.46,360.26,0.06,0000 0000 0000 0000 000000
2014-02-04 02:22:12,0.07,0.01,0.00,-6.21,-9.91,-6.48,6.51,32.54,1019.06,2173.01,3801.64,3557.85,3875.15,349.87,360.16,0.06,0000 0000 0000 0000 000000
2014-02-04 02:23:12,0.08,0.01,0.00,-6.09,-9.89,-6.41,6.50,32.25,1019.06,2173.03,3800.91,3557.24,3874.57,349.39,360.03,0.07,0000 0000 0000 0000 000000
2014-02-04 02:24:12,0.09,0.01,0.00,-5.96,-9.87,-6.32,6.57,32.79,1019.06,2173.12,3800.24,3556.56,3874.19,349.92,359.56,0.07,0000 0000 0000 0000 000000
2014-02-04 02:25:13,0.11,0.01,0.00,-5.85,-9.85,-6.23,6.48,32.42,1019.06,2173.20,3799.53,3556.15,3873.65,349.35,359.15,0.08,0000 0000 0000 0000 000000
2014-02-04 02:26:13,0.13,0.01,0.00,-5.78,-9.83,-6.12,6.48,32.38,1019.06,2173.28,3798.80,3555.61,3873.24,349.99,359.70,0.08,0000 0000 0000 0000 000000
2014-02-04 02:27:13,0.16,0.02,0.00,-5.71,-9.81,-6.03,6.52,32.63,1019.06,2173.52,3798.13,3555.21,3872.86,350.56,359.99,0.09,0000 0000 0000 0000 000000
2014-02-04 02:28:13,0.18,0.02,0.00,-5.64,-9.78,-5.91,6.60,32.79,1019.06,2173.78,3797.33,3554.74,3872.26,351.22,360.79,0.10,0000 0000 0000 0000 000000
2014-02-04 02:29:14,0.22,0.02,0.00,-5.56,-9.75,-5.81,6.47,32.75,1019.06,2173.87,3796.43,3554.07,3871.48,349.77,359.20,0.10,0000 0000 0000 0000 000000
2014-02-04 02:30:14,0.25,0.02,0.00,-5.48,-9.72,-5.71,6.52,32.67,1019.09,2173.94,3795.57,3553.38,3870.65,349.88,359.20,0.11,0000 0000 0000 0000 000000
2014-02-04 02:31:14,0.27,0.03,0.00,-5.40,-9.68,-5.61,6.45,32.88,1019.09,2173.98,3794.76,3552.68,3870.04,348.24,357.40,0.11,0000 0000 0000 0000 000000
2014-02-04 02:32:14,0.28,0.03,0.00,-5.30,-9.65,-5.52,6.67,33.04,1019.09,2173.99,3793.97,3552.13,3869.42,349.73,358.80,0.12,0000 0000 0000 0000 000000
2014-02-04 02:33:14,0.28,0.03,0.00,-5.20,-9.61,-5.41,6.56,33.08,1019.11,2173.99,3793.21,3551.46,3868.89,350.23,359.05,0.13,0000 0000 0000 0000 000000
2014-02-04 02:34:15,0.29,0.03,0.00,-5.10,-9.57,-5.31,6.51,32.88,1019.25,2173.99,3792.44,3550.88,3868.22,350.07,358.64,0.13,0000 0000 0000 0000 000000
2014-02-04 02:35:15,0.28,0.03,0.00,-5.00,-9.53,-5.20,6.53,32.83,1019.47,2173.99,3791.66,3550.13,3867.50,350.70,359.58,0.14,0000 0000 0000 0000 000000
2014-02-04 02:36:15,0.30,0.03,0.00,-4.88,-9.49,-5.09,6.52,32.83,1019.53,2173.98,3790.89,3549.44,3866.81,349.48,358.26,0.14,0000 0000 0000 0000 000000
2014-02-04 02:37:15,0.30,0.04,0.00,-4.79,-9.45,-4.98,6.44,33.04,1019.54,2173.98,3790.04,3548.83,3866.20,349.06,357.98,0.15,0000 0000 0000 0000 000000
2014-02-04 02:38:16,0.29,0.04,0.00,-4.68,-9.40,-4.88,6.35,33.08,1019.55,2173.99,3789.26,3548.17,3865.50,349.27,357.67,0.16,0000 0000 0000 0000 000000
2014-02-04 02:39:16,0.30,0.04,0.00,-4.57,-9.35,-4.77,6.38,33.42,1019.55,2173.96,3788.53,3547.03,3864.99,349.85,358.73,0.16,0000 0000 0000 0000 000000
2014-02-04 02:40:17,0.34,0.04,0.00,-4.44,-9.30,-4.67,6.40,33.25,1019.55,2173.94,3787.80,3545.60,3864.41,349.55,357.92,0.17,0000 0000 0000 0000 000000
2014-02-04 02:41:17,0.38,0.04,0.00,-4.32,-9.24,-4.58,6.62,33.46,1019.55,2173.93,3787.05,3544.33,3863.88,350.12,358.29,0.17,0000 0000 0000 0000 000000
2014-02-04 02:42:17,0.37,0.05,0.00,-4.20,-9.20,-4.45,6.56,33.42,1019.55,2173.81,3786.31,3543.60,3863.27,350.03,357.94,0.18,0000 0000 0000 0000 000000
2014-02-04 02:43:17,0.24,0.05,0.00,-4.07,-9.14,-4.33,6.34,33.63,1019.55,2173.51,3785.54,3543.08,3862.57,349.53,357.13,0.18,0000 0000 0000 0000 000000
2014-02-04 02:44:17,0.11,0.05,0.00,-3.96,-9.09,-4.24,6.53,33.67,1019.57,2173.19,3784.87,3542.43,3861.92,350.07,357.54,0.19,0000 0000 0000 0000 000000
2014-02-04 02:45:18,0.04,0.05,0.00,-3.84,-9.03,-4.14,6.51,33.71,1019.63,2173.07,3784.21,3542.06,3861.30,350.32,357.66,0.20,0000 0000 0000 0000 000000
2014-02-04 02:46:18,0.14,0.05,0.00,-3.72,-8.96,-4.04,6.33,33.58,1019.82,2173.03,3783.51,3541.48,3860.65,349.52,356.74,0.20,0000 0000 0000 0000 000000
2014-02-04 02:47:18,0.25,0.05,0.00,-3.61,-8.91,-3.94,6.28,33.63,1019.94,2173.01,3782.71,3541.03,3860.07,350.44,357.17,0.21,0000 0000 0000 0000 000000
2014-02-04 02:48:18,0.22,0.05,0.00,-3.49,-8.85,-3.82,6.42,33.50,1020.02,2172.99,3781.94,3540.41,3859.38,350.27,357.47,0.21,0000 0000 0000 0000 000000
2014-02-04 02:49:19,0.27,0.05,0.00,-3.38,-8.78,-3.72,6.36,33.58,1020.03,2172.97,3781.17,3539.91,3858.60,349.49,356.35,0.22,0000 0000 0000 0000 000000
2014-02-04 02:50:19,0.25,0.06,0.00,-3.27,-8.71,-3.63,6.39,33.67,1020.03,2172.91,3780.42,3539.34,3857.95,350.13,356.85,0.23,0000 0000 0000 0000 000000
2014-02-04 02:51:19,0.21,0.06,0.00,-3.16,-8.65,-3.54,6.63,34.04,1020.03,2172.65,3779.64,3538.75,3857.16,350.24,356.85,0.23,0000 0000 0000 0000 000000
2014-02-04 02:52:20,0.08,0.06,0.00,-3.06,-8.59,-3.45,6.47,33.96,1020.03,2172.29,3778.76,3538.24,3856.44,350.06,356.49,0.24,0000 0000 0000 0000 000000
2014-02-04 02:53:20,0.05,0.06,0.00,-2.95,-8.52,-3.33,6.35,34.00,1020.03,2172.11,3778.03,3537.61,3855.71,349.21,355.93,0.24,0000 0000 0000 0000 000000
2014-02-04 02:54:20,0.17,0.06,0.00,-2.84,-8.45,-3.23,6.46,33.88,1020.03,2172.04,3777.28,3537.19,3854.96,349.23,355.37,0.25,0000 0000 0000 0000 000000
2014-02-04 02:55:20,0.24,0.06,0.00,-2.74,-8.38,-3.11,6.41,34.04,1020.03,2172.01,3776.40,3536.49,3854.00,350.09,356.11,0.25,0000 0000 0000 0000 000000
2014-02-04 02:56:21,0.34,0.06,0.00,-2.63,-8.31,-3.00,6.36,33.58,1020.04,2171.99,3775.57,3535.65,3853.11,349.53,355.40,0.26,0000 0000 0000 0000 000000
2014-02-04 02:57:21,0.33,0.06,0.00,-2.53,-8.23,-2.90,6.43,33.67,1020.07,2171.86,3774.83,3534.85,3852.31,349.90,355.65,0.27,0000 0000 0000 0000 000000
2014-02-04 02:58:21,0.18,0.06,0.00,-2.43,-8.16,-2.81,6.49,34.00,1020.10,2171.46,3773.95,3534.09,3851.51,350.35,355.98,0.27,0000 0000 0000 0000 000000
2014-02-04 02:59:21,0.08,0.07,0.00,-2.34,-8.08,-2.69,6.39,34.04,1020.17,2171.17,3773.03,3533.42,3850.68,349.29,355.08,0.28,0000 0000 0000 0000 000000
2014-02-04 03:00:22,0.15,0.07,0.00,-2.24,-8.00,-2.58,6.49,34.42,1020.33,2171.06,3772.17,3532.74,3849.92,350.25,356.19,0.28,0000 0000 0000 0000 000000
2014-02-04 03:01:22,0.23,0.07,0.00,-2.14,-7.92,-2.48,6.46,34.42,1020.48,2171.02,3771.27,3532.01,3849.15,349.64,354.96,0.29,0000 0000 0000 0000 000000
2014-02-04 03:02:22,0.30,0.07,0.00,-2.04,-7.84,-2.36,6.51,34.83,1020.51,2170.94,3770.36,3531.27,3848.36,349.74,355.33,0.30,0000 0000 0000 0000 000000
2014-02-04 03:03:23,0.25,0.07,0.00,-1.94,-7.76,-2.23,6.37,34.71,1020.52,2170.62,3769.50,3530.53,3847.56,349.20,354.76,0.30,0000 0000 0000 0000 000000
2014-02-04 03:04:23,0.10,0.07,0.00,-1.85,-7.68,-2.12,6.54,34.92,1020.52,2170.29,3768.70,3529.94,3846.76,350.09,355.10,0.31,0000 0000 0000 0000 000000
2014-02-04 03:05:23,0.08,0.07,0.00,-1.75,-7.60,-2.03,6.45,35.04,1020.52,2170.11,3767.90,3529.24,3846.05,348.91,354.16,0.31,0000 0000 0000 0000 000000
2014-02-04 03:06:23,0.19,0.07,0.00,-1.65,-7.51,-1.91,6.51,34.92,1020.52,2170.04,3767.05,3528.50,3845.27,350.83,355.67,0.32,0000 0000 0000 0000 000000
2014-02-04 03:07:24,0.28,0.07,0.00,-1.55,-7.43,-1.81,6.52,34.58,1020.52,2169.96,3766.30,3527.73,3844.41,350.13,354.76,0.33,0000 0000 0000 0000 000000
2014-02-04 03:08:24,0.24,0.08,0.00,-1.46,-7.35,-1.68,6.56,35.29,1020.52,2169.65,3765.56,3527.07,3843.57,349.91,354.41,0.33,0000 0000 0000 0000 000000
2014-02-04 03:09:24,0.10,0.08,0.00,-1.37,-7.26,-1.57,6.48,35.29,1020.55,2169.28,3764.89,3526.36,3842.73,350.30,354.70,0.34,0000 0000 0000 0000 000000
2014-02-04 03:10:25,0.05,0.08,0.00,-1.28,-7.17,-1.47,6.49,35.29,1020.61,2169.10,3764.32,3525.60,3842.01,349.78,354.07,0.34,0000 0000 0000 0000 000000
2014-02-04 03:11:25,0.17,0.08,0.00,-1.19,-7.09,-1.37,6.47,35.21,1020.68,2169.01,3763.64,3524.93,3841.22,349.59,353.79,0.35,0000 0000 0000 0000 000000
2014-02-04 03:12:25,0.19,0.08,0.00,-1.10,-7.00,-1.24,6.44,35.17,1020.81,2168.64,3762.99,3524.26,3840.46,349.76,353.89,0.35,0000 0000 0000 0000 000000
2014-02-04 03:13:26,0.07,0.08,0.00,-1.00,-6.92,-1.13,6.44,34.79,1020.93,2168.24,3762.19,3523.54,3839.71,350.24,354.28,0.36,0000 0000 0000 0000 000000
2014-02-04 03:14:26,0.03,0.08,0.00,-0.90,-6.83,-1.01,6.41,35.00,1021.00,2168.08,3761.30,3522.83,3838.98,350.04,353.98,0.37,0000 0000 0000 0000 000000
2014-02-04 03:15:26,0.21,0.08,0.00,-0.82,-6.74,-0.89,6.35,34.92,1021.01,2167.99,3760.45,3522.14,3838.25,349.69,353.59,0.37,0000 0000 0000 0000 000000
2014-02-04 03:16:26,0.24,0.08,0.00,-0.73,-6.65,-0.78,6.45,34.83,1021.01,2167.65,3759.57,3521.39,3837.43,349.23,352.95,0.38,0000 0000 0000 0000 000000
2014-02-04 03:17:27,0.12,0.08,0.00,-0.66,-6.56,-0.69,6.56,35.13,1021.01,2167.25,3758.65,3520.59,3836.57,350.16,353.85,0.38,0000 0000 0000 0000 000000
2014-02-04 03:18:27,0.08,0.08,0.00,-0.57,-6.47,-0.58,6.36,35.00,1021.01,2167.09,3757.76,3519.87,3835.69,349.34,352.84,0.39,0000 0000 0000 0000 000000
2014-02-04 03:19:27,0.22,0.08,0.00,-0.47,-6.37,-0.45,6.45,35.00,1021.01,2166.97,3756.97,3519.15,3834.83,351.00,354.07,0.40,0000 0000 0000 0000 000000
2014-02-04 03:20:28,0.21,0.09,0.00,-0.38,-6.28,-0.33,6.42,34.83,1021.01,2166.56,3756.13,3518.43,3834.02,350.76,354.05,0.40,0000 0000 0000 0000 000000
2014-02-04 03:21:28,0.08,0.09,0.00,-0.29,-6.19,-0.22,6.52,34.96,1021.04,2166.21,3755.31,3517.72,3833.24,349.90,353.06,0.41,0000 0000 0000 0000 000000
2014-02-04 03:22:28,0.07,0.09,0.00,-0.21,-6.09,-0.10,6.50,34.83,1021.09,2166.07,3754.44,3516.99,3832.43,350.48,353.47,0.41,0000 0000 0000 0000 000000
2014-02-04 03:23:28,0.24,0.09,0.00,-0.11,-6.00,0.01,6.31,34.71,1021.16,2165.91,3753.53,3516.24,3831.59,349.32,352.64,0.42,0000 0000 0000 0000 000000
2014-02-04 03:24:29,0.24,0.09,0.00,-0.03,-5.90,0.12,6.29,34.67,1021.27,2165.52,3752.64,3515.48,3830.71,349.77,352.67,0.42,0000 0000 0000 0000 000000
2014-02-04 03:25:29,0.09,0.09,0.00,0.05,-5.81,0.21,6.42,34.88,1021.36,2165.21,3751.79,3514.70,3829.89,349.70,352.52,0.43,0000 0000 0000 0000 000000
2014-02-04 03:26:29,0.12,0.09,0.00,0.14,-5.71,0.32,6.37,34.54,1021.28,2165.07,3750.86,3513.93,3829.03,349.93,352.61,0.44,0000 0000 0000 0000 000000
2014-02-04 03:27:30,0.25,0.09,0.00,0.23,-5.61,0.42,6.47,34.63,1021.48,2164.92,3750.08,3513.20,3828.22,349.98,352.62,0.44,0000 0000 0000 0000 000000
2014-02-04 03:28:30,0.17,0.09,0.00,0.33,-5.52,0.54,6.38,34.75,1021.50,2164.45,3749.20,3512.47,3827.36,349.48,351.98,0.45,0000 0000 0000 0000 000000
2014-02-04 03:29:30,0.06,0.09,0.00,0.42,-5.42,0.66,6.40,34.63,1021.50,2164.17,3748.36,3511.72,3826.48,350.57,352.97,0.45,0000 0000 0000 0000 000000
2014-02-04 03:30:30,0.17,0.09,0.00,0.49,-5.33,0.79,6.27,34.42,1021.50,2164.04,3747.47,3510.84,3825.60,349.52,351.60,0.46,0000 0000 0000 0000 000000
2014-02-04 03:31:31,0.27,0.10,0.00,0.59,-5.23,0.90,6.28,34.79,1021.50,2163.80,3746.57,3510.07,3824.79,349.24,351.42,0.47,0000 0000 0000 0000 000000
2014-02-04 03:32:31,0.11,0.10,0.00,0.67,-5.13,1.01,6.55,34.96,1021.52,2163.33,3745.63,3509.28,3823.99,350.32,352.40,0.47,0000 0000 0000 0000 000000
2014-02-04 03:33:31,0.08,0.10,0.00,0.75,-5.03,1.12,6.43,34.79,1021.53,2163.12,3744.70,3508.49,3823.07,349.94,351.72,0.48,0000 0000 0000 0000 000000
2014-02-04 03:34:31,0.23,0.10,0.00,0.81,-4.93,1.24,6.45,34.63,1021.59,2163.00,3743.83,3507.69,3822.19,350.13,352.05,0.48,0000 0000 0000 0000 000000
2014-02-04 03:35:32,0.20,0.10,0.00,0.89,-4.83,1.35,6.38,34.58,1021.64,2162.62,3742.93,3506.99,3821.38,350.34,352.18,0.49,0000 0000 0000 0000 000000
2014-02-04 03:36:32,0.08,0.10,0.00,0.97,-4.73,1.45,6.40,34.54,1021.67,2162.26,3742.00,3506.22,3820.57,349.81,351.33,0.50,0000 0000 0000 0000 000000
2014-02-04 03:37:32,0.12,0.10,0.00,1.06,-4.63,1.56,6.52,34.58,1021.78,2162.09,3741.16,3505.43,3819.71,350.15,351.87,0.50,0000 0000 0000 0000 000000
2014-02-04 03:38:32,0.25,0.10,0.00,1.15,-4.53,1.67,6.54,34.67,1021.85,2161.88,3740.33,3504.64,3818.78,350.35,351.89,0.51,0000 0000 0000 0000 000000
2014-02-04 03:39:33,0.14,0.10,0.00,1.24,-4.43,1.78,6.40,34.29,1021.92,2161.41,3739.50,3503.82,3817.85,349.97,351.76,0.51,0000 0000 0000 0000 000000
2014-02-04 03:40:33,0.05,0.10,0.00,1.30,-4.33,1.89,6.48,34.46,1021.96,2161.15,3738.68,3503.09,3817.02,349.89,350.71,0.52,0000 0000 0000 0000 000000
2014-02-04 03:41:33,0.18,0.11,0.00,1.37,-4.22,2.00,6.43,34.04,1021.98,2161.05,3737.86,3502.29,3816.16,351.81,352.77,0.52,0000 0000 0000 0000 000000
2014-02-04 03:42:34,0.29,0.11,0.00,1.45,-4.12,2.10,6.26,34.00,1021.99,2160.71,3736.97,3501.46,3815.16,349.82,351.05,0.53,0000 0000 0000 0000 000000
2014-02-04 03:43:34,0.13,0.11,0.00,1.53,-4.02,2.23,6.45,34.25,1021.98,2160.28,3736.12,3500.63,3814.19,349.54,350.88,0.54,0000 0000 0000 0000 000000
2014-02-04 03:44:34,0.06,0.11,0.00,1.60,-3.92,2.35,6.35,33.83,1021.99,2160.08,3735.35,3499.78,3813.29,349.76,350.81,0.54,0000 0000 0000 0000 000000
2014-02-04 03:45:35,0.22,0.11,0.00,1.69,-3.82,2.45,6.43,33.63,1021.99,2159.84,3734.57,3499.02,3812.40,349.35,350.29,0.55,0000 0000 0000 0000 000000
2014-02-04 03:46:35,0.11,0.11,0.00,1.77,-3.72,2.54,6.40,33.71,1021.99,2159.33,3733.73,3498.16,3811.47,350.24,351.07,0.55,0000 0000 0000 0000 000000
2014-02-04 03:47:35,0.07,0.11,0.00,1.85,-3.62,2.64,6.25,33.29,1021.99,2159.12,3732.91,3497.34,3810.52,349.24,349.94,0.56,0000 0000 0000 0000 000000
2014-02-04 03:48:35,0.20,0.11,0.00,1.91,-3.52,2.79,6.47,33.46,1021.99,2158.76,3732.09,3496.53,3809.58,349.90,350.55,0.57,0000 0000 0000 0000 000000
2014-02-04 03:49:36,0.08,0.11,0.00,1.99,-3.41,2.86,6.52,31.25,1021.99,2158.30,3725.83,3493.17,3805.43,350.80,351.36,0.57,0000 0000 0000 0000 000000
2014-02-04 03:50:36,4.17,0.14,0.00,2.06,-3.30,3.00,6.22,28.71,1022.00,2158.11,3692.68,3476.76,3784.71,349.48,350.45,0.58,0000 0000 0000 0000 000000
2014-02-04 03:51:36,7.08,0.17,0.00,2.13,-3.21,3.09,6.15,28.67,1022.05,2158.05,3684.46,3470.03,3777.62,349.64,350.03,0.58,0000 0000 0000 0000 000000
2014-02-04 03:52:37,3.12,0.19,0.00,2.21,-3.11,3.19,6.33,28.96,1022.15,2158.03,3687.75,3469.21,3777.53,349.89,349.95,0.59,0000 0000 0000 0000 000000
2014-02-04 03:53:37,-0.26,0.19,0.00,2.29,-3.01,3.30,6.28,28.92,1022.29,2158.01,3693.17,3469.96,3778.86,349.64,349.59,0.59,0000 0000 0000 0000 000000
2014-02-04 03:54:37,-0.96,0.19,0.00,2.36,-2.90,3.44,6.21,28.75,1022.43,2157.98,3697.66,3470.60,3779.45,349.93,350.11,0.60,0000 0000 0000 0000 000000
2014-02-04 03:55:38,-0.73,0.18,0.00,2.43,-2.80,3.54,6.32,28.83,1022.47,2157.80,3700.55,3470.73,3778.92,350.07,350.23,0.61,0000 0000 0000 0000 000000
2014-02-04 03:56:38,-0.47,0.18,0.00,2.48,-2.70,3.62,6.35,28.71,1022.48,2157.35,3702.11,3470.18,3777.85,350.05,350.40,0.61,0000 0000 0000 0000 000000
2014-02-04 03:57:38,-0.23,0.18,0.00,2.55,-2.60,3.71,6.20,28.67,1022.48,2157.12,3702.67,3469.43,3776.72,349.72,349.73,0.62,0000 0000 0000 0000 000000
2014-02-04 03:58:39,0.04,0.18,0.00,2.62,-2.50,3.83,6.27,28.50,1022.48,2156.84,3702.40,3468.43,3775.58,348.92,348.83,0.62,0000 0000 0000 0000 000000
2014-02-04 03:59:39,0.10,0.18,0.00,2.69,-2.39,3.91,6.36,28.58,1022.48,2156.34,3701.61,3467.33,3774.22,350.62,350.44,0.63,0000 0000 0000 0000 000000
2014-02-04 04:00:39,0.18,0.18,0.00,2.77,-2.29,4.02,6.35,28.58,1022.48,2156.12,3700.74,3466.26,3772.87,349.42,349.15,0.64,0000 0000 0000 0000 000000
2014-02-04 04:01:39,0.31,0.19,0.00,2.85,-2.20,4.13,6.39,28.88,1022.49,2155.75,3699.80,3465.28,3771.74,350.14,349.77,0.64,0000 0000 0000 0000 000000
2014-02-04 04:02:40,0.10,0.19,0.00,2.91,-2.10,4.21,6.33,28.67,1022.48,2155.29,3698.89,3464.42,3770.77,350.03,349.57,0.65,0000 0000 0000 0000 000000
2014-02-04 04:03:40,0.13,0.19,0.00,2.96,-1.99,4.33,6.31,28.75,1022.49,2155.10,3697.93,3463.56,3769.77,349.98,349.09,0.65,0000 0000 0000 0000 000000
2014-02-04 04:04:40,0.27,0.19,0.00,2.98,-1.89,4.44,6.29,29.00,1022.51,2154.82,3696.93,3462.71,3768.76,350.63,350.09,0.66,0000 0000 0000 0000 000000
2014-02-04 04:05:41,0.13,0.19,0.00,3.01,-1.79,4.55,6.42,28.63,1022.58,2154.38,3696.05,3461.83,3767.81,350.83,350.30,0.67,0000 0000 0000 0000 000000
2014-02-04 04:06:41,0.11,0.19,0.00,3.03,-1.69,4.65,6.26,28.54,1022.73,2154.14,3695.09,3460.95,3766.81,349.80,349.28,0.67,0000 0000 0000 0000 000000
2014-02-04 04:07:41,0.24,0.19,0.00,3.07,-1.59,4.76,6.36,28.67,1022.87,2153.90,3694.19,3460.22,3765.84,349.50,348.97,0.68,0000 0000 0000 0000 000000
2014-02-04 04:08:42,0.14,0.19,0.00,3.09,-1.49,4.84,6.32,28.58,1022.95,2153.43,3693.34,3459.41,3764.99,350.00,349.48,0.68,0000 0000 0000 0000 000000
2014-02-04 04:09:42,0.06,0.19,0.00,3.11,-1.39,4.94,6.40,28.71,1022.96,2153.15,3692.52,3458.58,3764.04,350.31,349.58,0.69,0000 0000 0000 0000 000000
2014-02-04 04:10:42,0.15,0.19,0.00,3.12,-1.29,5.05,6.33,28.21,1022.96,2152.96,3691.71,3457.84,3763.14,350.17,349.62,0.69,0000 0000 0000 0000 000000
2014-02-04 04:11:42,0.17,0.19,0.00,3.15,-1.19,5.15,6.34,28.88,1022.96,2152.48,3690.77,3457.02,3762.18,350.73,349.57,0.70,0000 0000 0000 0000 000000
2014-02-04 04:12:43,0.08,0.19,0.00,3.17,-1.10,5.20,6.42,28.63,1022.96,2152.17,3689.84,3456.17,3761.23,350.52,349.89,0.71,0000 0000 0000 0000 000000
2014-02-04 04:13:43,0.19,0.20,0.00,3.20,-1.00,5.33,6.33,28.50,1022.96,2151.98,3688.96,3455.36,3760.27,350.62,349.64,0.71,0000 0000 0000 0000 000000
2014-02-04 04:14:43,0.23,0.20,0.00,3.21,-0.90,5.42,6.39,28.71,1022.96,2151.59,3688.05,3454.55,3759.33,350.09,349.81,0.72,0000 0000 0000 0000 000000
2014-02-04 04:15:43,0.07,0.20,0.00,3.23,-0.80,5.52,6.39,28.88,1022.96,2151.22,3687.22,3453.74,3758.37,349.63,348.69,0.72,0000 0000 0000 0000 000000
2014-02-04 04:16:43,0.14,0.20,0.00,3.27,-0.70,5.59,6.32,28.33,1022.96,2151.01,3686.32,3452.88,3757.37,350.21,350.01,0.73,0000 0000 0000 0000 000000
2014-02-04 04:17:44,0.18,0.20,0.00,3.29,-0.61,5.71,6.34,28.38,1023.01,2150.49,3685.48,3452.01,3756.40,350.19,349.44,0.74,0000 0000 0000 0000 000000
2014-02-04 04:18:44,0.05,0.20,0.00,3.31,-0.52,5.80,6.33,28.50,1023.00,2150.17,3684.70,3451.23,3755.36,349.90,349.13,0.74,0000 0000 0000 0000 000000
2014-02-04 04:19:44,0.15,0.20,0.00,3.34,-0.41,5.91,6.30,28.29,1023.09,2149.99,3683.82,3450.43,3754.40,349.92,348.98,0.75,0000 0000 0000 0000 000000
2014-02-04 04:20:44,0.18,0.20,0.00,3.35,-0.32,5.97,6.43,28.58,1023.22,2149.51,3682.90,3449.62,3753.43,349.62,348.86,0.75,0000 0000 0000 0000 000000
2014-02-04 04:21:45,0.06,0.20,0.00,3.39,-0.22,6.09,6.37,28.54,1023.36,2149.18,3682.03,3448.79,3752.48,349.32,348.56,0.76,0000 0000 0000 0000 000000
2014-02-04 04:22:45,0.15,0.20,0.00,3.42,-0.13,6.15,6.32,28.63,1023.43,2148.98,3681.15,3447.91,3751.43,349.74,348.96,0.76,0000 0000 0000 0000 000000
2014-02-04 04:23:45,0.23,0.20,0.00,3.44,-0.03,6.27,6.58,29.21,1023.45,2148.48,3680.11,3446.85,3750.35,349.95,349.04,0.77,0000 0000 0000 0000 000000
2014-02-04 04:24:46,0.14,0.20,0.00,3.45,0.06,6.34,6.47,28.54,1023.45,2148.18,3679.03,3445.93,3749.22,350.25,349.44,0.78,0000 0000 0000 0000 000000
2014-02-04 04:25:46,0.22,0.21,0.00,3.46,0.15,6.45,6.29,28.58,1023.45,2148.02,3678.14,3445.13,3748.29,349.17,348.35,0.78,0000 0000 0000 0000 000000
2014-02-04 04:26:46,0.25,0.21,0.00,3.48,0.25,6.54,6.34,28.08,1023.45,2147.56,3677.23,3444.20,3747.28,349.43,347.97,0.79,0000 0000 0000 0000 000000
2014-02-04 04:27:47,0.09,0.21,0.00,3.51,0.34,6.65,6.52,28.88,1023.45,2147.22,3676.28,3443.36,3746.30,351.25,350.36,0.79,0000 0000 0000 0000 000000
2014-02-04 04:28:47,0.16,0.21,0.00,3.54,0.44,6.72,6.38,28.67,1023.45,2147.01,3675.34,3442.51,3745.32,349.48,348.57,0.80,0000 0000 0000 0000 000000
2014-02-04 23:38:27,0.00,0.00,0.00,1.46,-0.40,-1.43,3.88,19.33,1024.72,1433.30,2498.56,2348.20,2557.90,208.51,209.81,0.00,0000 0000 0000 0000 000082
2014-02-04 23:39:27,0.00,0.00,0.00,1.48,-0.41,-0.88,6.34,30.79,1024.92,2149.26,3744.39,3519.80,3835.10,350.56,352.94,0.00,0004 0000 0000 0000 000082
2014-02-04 23:40:27,0.00,0.00,0.00,1.51,-0.43,-0.31,6.40,31.00,1025.15,2148.11,3740.94,3516.90,3832.16,350.27,352.78,0.01,0000 0000 0000 0000 000082
2014-02-04 23:41:27,0.00,0.00,0.00,1.56,-0.43,0.16,6.28,30.54,1025.36,2147.38,3738.59,3514.88,3829.93,350.17,352.43,0.00,0000 0000 0000 0000 000000
2014-02-04 23:42:28,0.00,0.00,0.00,1.62,-0.43,0.58,6.40,30.88,1025.40,2146.79,3736.83,3513.32,3828.18,350.82,353.02,0.00,0000 0000 0000 0000 000000
2014-02-04 23:43:28,0.00,0.00,0.00,1.69,-0.43,0.95,6.28,30.75,1025.40,2146.32,3735.43,3512.27,3826.96,349.80,352.18,0.01,0000 0000 0000 0000 000000
2014-02-04 23:44:28,0.00,0.00,0.00,1.76,-0.43,1.31,6.51,30.96,1025.40,2146.12,3734.24,3511.42,3825.99,350.80,352.82,0.01,0000 0000 0000 0000 000000
2014-02-04 23:45:29,0.00,0.00,0.00,1.82,-0.45,1.60,6.47,31.04,1025.40,2146.04,3733.24,3510.64,3825.29,350.32,352.41,0.02,0000 0000 0000 0000 000000
2014-02-04 23:46:29,0.00,0.00,0.00,1.88,-0.45,1.85,6.31,30.71,1025.40,2146.01,3732.32,3510.09,3824.57,350.61,352.31,0.03,0000 0000 0000 0000 000000
2014-02-04 23:47:29,0.01,0.00,0.00,1.93,-0.45,2.05,6.47,30.79,1025.44,2145.98,3731.44,3509.43,3823.97,349.67,351.52,0.03,0000 0000 0000 0000 000000
2014-02-04 23:48:30,0.02,0.00,0.00,2.00,-0.45,2.17,6.25,30.67,1025.47,2145.97,3730.59,3508.84,3823.37,349.37,351.10,0.04,0000 0000 0000 0000 000000
2014-02-04 23:49:30,0.04,0.01,0.00,2.06,-0.45,2.26,6.41,30.71,1025.47,2145.97,3729.76,3508.32,3822.95,349.93,351.57,0.04,0000 0000 0000 0000 000000
2014-02-04 23:50:30,0.04,0.01,0.00,2.13,-0.45,2.36,6.28,30.63,1025.64,2145.91,3729.02,3507.81,3822.38,349.96,351.61,0.05,0000 0000 0000 0000 000000
2014-02-04 23:51:30,0.06,0.01,0.00,2.18,-0.45,2.40,6.41,30.67,1025.73,2145.80,3728.22,3507.30,3821.91,349.83,351.24,0.05,0000 0000 0000 0000 000000
2014-02-04 23:52:31,0.07,0.01,0.00,2.24,-0.44,2.46,6.37,30.46,1025.81,2145.71,3727.46,3506.83,3821.35,349.85,351.39,0.06,0000 0000 0000 0000 000000
2014-02-04 23:53:31,0.08,0.01,0.00,2.29,-0.43,2.52,6.52,30.50,1025.85,2145.64,3726.69,3506.32,3820.93,350.74,352.24,0.07,0000 0000 0000 0000 000000
2014-02-04 23:54:31,0.08,0.01,0.00,2.34,-0.43,2.59,6.35,30.54,1025.89,2145.47,3725.91,3505.80,3820.36,349.71,350.93,0.07,0000 0000 0000 0000 000000